Location: Praha
(50.0830°N, 14.4670°E)
Time: 13:23:04
(UTC+02:00)

ISS - Pass Details

Date: 19 September 2021
Orbit: 419 x 423 km, 51.6° (Epoch: 21 September)

Event Time Altitude Azimuth Distance (km) Brightness Sun altitude
Rises 21:40:52 0° 259° (W) 2,363 0.7 -24.1°
Reaches altitude 10° 21:42:58 10° 261° (W) 1,501 -0.4 -24.3°
Enters shadow 21:44:44 29° 265° (W) 807 -1.9 -24.6°
